West Palm Beach, FL

9:43 AM EDT on September 19, 2019 (GMT -0400)
Palm Beach International

Weather History for KPBI - July, 2019

Change the Weather History Date:

Saturday, July 27, 2019

  Actual Average Record
Temperature  
Mean Temperature 85 °F 83 °F  
Max Temperature 92 °F 90 °F 96 °F (1950)
Min Temperature 77 °F 76 °F 69 °F (1911)
Degree Days  
Heating Degree Days 0 0  
Month to date heating degree days 0 0  
Since 1 June heating degree days 0 0  
Since 1 July heating degree days 0 0  
Cooling Degree Days 20 18  
Month to date cooling degree days 536 475  
Year to date cooling degree days 2508 2074  
Since 1 June cooling degree days 1107 965  
Growing Degree Days 34 (Base 50)    
Moisture  
Dew Point 74 °F    
Average Humidity 79    
Maximum Humidity 94    
Minimum Humidity 63    
Precipitation  
Precipitation 1.33 in 0.18 in 2.56 in (1974)
Month to date precipitation 2.91 5.05  
Year to date precipitation 31.11 32.06  
Snow  
Snow 0.00 in - - ()
Month to date snowfall 0.0  
Since 1 June snowfall 0.0  
Since 1 July snowfall 0.0  
Snow Depth 0.00 in    
Sea Level Pressure  
Sea Level Pressure 30.13 in    
Wind  
Wind Speed 5 mph (ESE)    
Max Wind Speed 15 mph    
Max Gust Speed 19 mph    
Visibility 10 miles    
Events Rain , Thunderstorm    
T = Trace of Precipitation, MM = Missing Value Source: NWS Daily Summary

Daily Weather History Graph

Daily Weather History Graph

Search for Another Location

Airport or City:

Astronomy

Jul. 27, 2019 Rise Set
Actual Time 6:42 AM EDT 8:11 PM EDT
Civil Twilight 6:17 AM EDT 8:36 PM EDT
Nautical Twilight 5:47 AM EDT 9:06 PM EDT
Astronomical Twilight 5:15 AM EDT 9:37 PM EDT
Moon 2:22 AM EDT (7/27) 4:01 PM EDT (7/27)
Length of Visible Light 14h 18m
Length of Day
13h 28m
Waning Crescent, 24% of the Moon is Illuminated
Jul 27
Waning Crescent
Jul 31
New
Aug 7
First Quarter
Aug 15
Full
Aug 23
Last Quarter

Hourly Weather History & Observations

Time (EDT) Temp. Heat Index Dew Point Humidity Pressure Visibility Wind Dir Wind Speed Gust Speed Precip Events Conditions
12:53 AM 78.1 °F - 73.0 °F 84% 30.14 in 10.0 mi West 4.6 mph - N/A   Overcast
1:53 AM 79.0 °F - 73.9 °F 84% 30.13 in 10.0 mi Calm Calm - N/A   Overcast
2:53 AM 78.1 °F - 73.9 °F 87% 30.11 in 10.0 mi Calm Calm - N/A   Mostly Cloudy
3:53 AM 79.0 °F - 75.0 °F 88% 30.10 in 10.0 mi Calm Calm - N/A   Mostly Cloudy
4:53 AM 80.1 °F 85.1 °F 75.0 °F 85% 30.11 in 10.0 mi Calm Calm - N/A   Mostly Cloudy
5:53 AM 79.0 °F - 73.0 °F 82% 30.12 in 10.0 mi Calm Calm - N/A   Scattered Clouds
6:53 AM 77.0 °F - 72.0 °F 84% 30.14 in 10.0 mi NW 5.8 mph - N/A   Scattered Clouds
7:53 AM 80.1 °F 86.7 °F 79.0 °F 96% 30.15 in 10.0 mi Calm Calm - N/A   Scattered Clouds
8:53 AM 84.9 °F 96.6 °F 78.1 °F 80% 30.17 in 10.0 mi Calm Calm - N/A   Scattered Clouds
9:53 AM 87.1 °F 96.3 °F 75.0 °F 67% 30.17 in 10.0 mi South 6.9 mph - N/A   Scattered Clouds
10:53 AM 87.1 °F 95.4 °F 73.9 °F 65% 30.17 in 10.0 mi Variable 6.9 mph - N/A   Mostly Cloudy
11:53 AM 87.1 °F 94.5 °F 73.0 °F 63% 30.17 in 10.0 mi SE 6.9 mph - N/A   Mostly Cloudy
12:53 PM 87.1 °F 95.4 °F 73.9 °F 65% 30.14 in 10.0 mi Variable 4.6 mph - N/A   Mostly Cloudy
1:53 PM 88.0 °F 95.6 °F 73.0 °F 61% 30.14 in 10.0 mi ESE 13.8 mph - N/A   Mostly Cloudy
2:39 PM 87.1 °F 94.5 °F 73.0 °F 63% 30.13 in 10.0 mi NE 9.2 mph - 0.00 in Rain , Thunderstorm Light Thunderstorms and Rain
2:53 PM 90.0 °F 101.3 °F 75.9 °F 63% 30.12 in 10.0 mi East 11.5 mph - 0.00 in Thunderstorm Thunderstorm
3:53 PM 88.0 °F 95.6 °F 73.0 °F 61% 30.10 in 10.0 mi ESE 9.2 mph - 0.02 in Thunderstorm Thunderstorm
4:36 PM 87.1 °F 93.6 °F 72.0 °F 61% 30.10 in 10.0 mi East 11.5 mph - N/A   Mostly Cloudy
4:53 PM 87.1 °F 93.6 °F 72.0 °F 61% 30.11 in 10.0 mi East 10.4 mph - N/A Thunderstorm Thunderstorm
5:53 PM 84.0 °F 89.6 °F 72.0 °F 67% 30.11 in 10.0 mi NNE 9.2 mph - N/A Thunderstorm Thunderstorm
6:47 PM 84.2 °F 92.3 °F 75.2 °F 74% 30.11 in 10.0 mi ESE 11.5 mph - N/A   Mostly Cloudy
6:53 PM 84.9 °F 93.3 °F 75.0 °F 72% 30.11 in 10.0 mi ESE 9.2 mph - N/A   Mostly Cloudy
7:53 PM 84.9 °F 92.1 °F 73.9 °F 69% 30.11 in 10.0 mi East 6.9 mph - N/A   Mostly Cloudy
8:53 PM 84.0 °F 91.9 °F 75.0 °F 74% 30.14 in 10.0 mi Calm Calm - N/A   Mostly Cloudy
9:53 PM 84.0 °F 91.9 °F 75.0 °F 74% 30.14 in 10.0 mi Calm Calm - N/A   Mostly Cloudy
10:00 PM 84.9 °F 93.3 °F 75.0 °F 72% 30.14 in 10.0 mi Calm Calm - N/A Thunderstorm Thunderstorm
10:27 PM 84.0 °F 91.9 °F 75.0 °F 74% 30.13 in 10.0 mi ESE 5.8 mph - N/A   Mostly Cloudy
10:53 PM 82.9 °F 90.2 °F 75.0 °F 77% 30.13 in 10.0 mi SE 4.6 mph - N/A   Mostly Cloudy
11:15 PM 84.0 °F 92.6 °F 75.9 °F 76% 30.14 in 10.0 mi South 3.5 mph - N/A   Overcast